BRX7456 ESNN-ENVA

Flight info

Callsign BRX7456
Flight time 0h 56m
Altitude 24000
Route SINNU DCT OLGUV DCT VEVOD
Aircraft DH8D/M-SDE2E3FGRY/H

Departure

Time 2026-05-04 02:50
Airport Sundsvall-Härnösand Airport (ESNN)

Arrival

Time 2026-05-04 03:46
Airport Trondheim Airport, Værnes (ENVA)
Time Latitude Longitude Altitude Speed Heading
2026-05-04 02:21 62.52452 17.44137 3 ft 0 kts 280°
2026-05-04 02:37 62.52453 17.44136 3 ft 0 kts 280°
2026-05-04 02:38 62.52453 17.44135 3 ft 0 kts 280°
2026-05-04 02:39 62.52452 17.44140 3 ft 1 kts 280°
2026-05-04 02:39 62.52450 17.44170 3 ft 1 kts 280°
2026-05-04 02:40 62.52449 17.44191 3 ft 2 kts 264°
2026-05-04 02:40 62.52453 17.44222 3 ft 2 kts 237°
2026-05-04 02:40 62.52461 17.44241 3 ft 1 kts 216°
2026-05-04 02:40 62.52462 17.44243 3 ft 0 kts 216°
2026-05-04 02:43 62.52461 17.44241 3 ft 1 kts 210°
2026-05-04 02:43 62.52428 17.44253 3 ft 7 kts 161°
2026-05-04 02:43 62.52383 17.44316 3 ft 8 kts 102°
2026-05-04 02:43 62.52398 17.44437 3 ft 8 kts 70°
2026-05-04 02:44 62.52402 17.44466 3 ft 0 kts 70°
2026-05-04 02:46 62.52403 17.44469 3 ft 0 kts 70°
2026-05-04 02:46 62.52408 17.44502 3 ft 6 kts 70°
2026-05-04 02:46 62.52428 17.44629 3 ft 11 kts 81°
2026-05-04 02:47 62.52366 17.44741 3 ft 12 kts 160°
2026-05-04 02:47 62.52274 17.44810 4 ft 15 kts 161°
2026-05-04 02:47 62.52171 17.44891 4 ft 15 kts 158°
2026-05-04 02:47 62.52074 17.44967 4 ft 14 kts 161°
2026-05-04 02:48 62.51976 17.45044 4 ft 16 kts 160°
2026-05-04 02:48 62.51908 17.45110 4 ft 9 kts 207°
2026-05-04 02:48 62.51920 17.45047 4 ft 6 kts 11°
2026-05-04 02:48 62.51960 17.45058 4 ft 6 kts 340°
2026-05-04 02:49 62.51966 17.45053 4 ft 0 kts 340°
2026-05-04 02:49 62.51986 17.45038 4 ft 16 kts 340°
2026-05-04 02:49 62.52432 17.44686 4 ft 113 kts 340°
2026-05-04 02:50 62.53350 17.43983 130 ft 158 kts 338°
2026-05-04 02:50 62.54386 17.43208 896 ft 162 kts 341°
2026-05-04 02:50 62.55461 17.42409 1619 ft 170 kts 328°
2026-05-04 02:50 62.56198 17.40403 2131 ft 181 kts 279°
2026-05-04 02:51 62.56047 17.37709 2700 ft 191 kts 245°
2026-05-04 02:51 62.55600 17.34777 2969 ft 223 kts 251°
2026-05-04 02:51 62.54977 17.31572 3273 ft 241 kts 237°
2026-05-04 02:51 62.54068 17.28394 3716 ft 255 kts 236°
2026-05-04 02:52 62.53171 17.25233 4837 ft 244 kts 237°
2026-05-04 02:52 62.52303 17.22156 5676 ft 242 kts 237°
2026-05-04 02:52 62.51423 17.19014 6319 ft 246 kts 238°
2026-05-04 02:52 62.50541 17.15844 7004 ft 249 kts 238°
2026-05-04 02:53 62.49661 17.12661 7698 ft 250 kts 238°
2026-05-04 02:53 62.48782 17.09471 8423 ft 250 kts 239°
2026-05-04 02:53 62.47893 17.06237 9114 ft 252 kts 239°
2026-05-04 02:53 62.47008 17.03011 9805 ft 253 kts 240°
2026-05-04 02:54 62.46110 16.99737 10453 ft 255 kts 240°
2026-05-04 02:54 62.45211 16.96458 11205 ft 255 kts 240°
2026-05-04 02:54 62.44321 16.93215 11798 ft 253 kts 240°
2026-05-04 02:54 62.43408 16.89895 12239 ft 255 kts 240°
2026-05-04 02:55 62.41599 16.83323 13188 ft 256 kts 241°
2026-05-04 02:55 62.40703 16.80081 13525 ft 254 kts 240°
2026-05-04 02:55 62.39785 16.76759 13845 ft 259 kts 241°
2026-05-04 02:56 62.38866 16.73427 14357 ft 260 kts 241°
2026-05-04 02:56 62.37950 16.70112 14860 ft 260 kts 241°
2026-05-04 02:56 62.37045 16.66791 15371 ft 259 kts 243°
2026-05-04 02:56 62.36610 16.63049 15826 ft 263 kts 268°
2026-05-04 02:57 62.36700 16.58996 15900 ft 278 kts 271°
2026-05-04 02:57 62.36827 16.54777 15962 ft 290 kts 271°
2026-05-04 02:57 62.36966 16.50388 16070 ft 298 kts 271°
2026-05-04 02:57 62.37107 16.45938 16231 ft 302 kts 271°
2026-05-04 02:58 62.37249 16.41412 16515 ft 302 kts 271°
2026-05-04 02:58 62.37388 16.36924 16687 ft 304 kts 271°
2026-05-04 02:58 62.37526 16.32367 16922 ft 305 kts 271°
2026-05-04 02:58 62.37660 16.27846 17195 ft 303 kts 270°
2026-05-04 02:59 62.37791 16.23360 17477 ft 302 kts 270°
2026-05-04 02:59 62.37922 16.18851 17752 ft 301 kts 271°
2026-05-04 02:59 62.38049 16.14377 18022 ft 299 kts 270°
2026-05-04 02:59 62.38173 16.09950 18291 ft 298 kts 270°
2026-05-04 03:00 62.38296 16.05472 18565 ft 297 kts 270°
2026-05-04 03:00 62.38415 16.01099 18834 ft 295 kts 270°
2026-05-04 03:00 62.38532 15.96713 19109 ft 294 kts 270°
2026-05-04 03:00 62.38648 15.92330 19385 ft 293 kts 270°
2026-05-04 03:01 62.38763 15.87952 19661 ft 291 kts 270°
2026-05-04 03:01 62.38874 15.83641 19933 ft 288 kts 269°
2026-05-04 03:01 62.38983 15.79376 20206 ft 285 kts 270°
2026-05-04 03:01 62.39089 15.75138 20478 ft 282 kts 269°
2026-05-04 03:02 62.39193 15.70967 20757 ft 279 kts 269°
2026-05-04 03:02 62.39294 15.66864 21027 ft 276 kts 269°
2026-05-04 03:02 62.39394 15.62723 21307 ft 274 kts 269°
2026-05-04 03:02 62.39491 15.58682 21586 ft 271 kts 269°
2026-05-04 03:03 62.39587 15.54663 21862 ft 268 kts 269°
2026-05-04 03:03 62.39681 15.50650 22139 ft 266 kts 269°
2026-05-04 03:03 62.39772 15.46728 22413 ft 263 kts 268°
2026-05-04 03:03 62.39861 15.42836 22654 ft 262 kts 268°
2026-05-04 03:04 62.39949 15.38905 22865 ft 262 kts 268°
2026-05-04 03:04 62.40036 15.35016 23070 ft 261 kts 268°
2026-05-04 03:04 62.40123 15.31082 23276 ft 261 kts 267°
2026-05-04 03:04 62.40207 15.27188 23472 ft 261 kts 268°
2026-05-04 03:05 62.40292 15.23276 23618 ft 263 kts 267°
2026-05-04 03:05 62.40375 15.19323 23647 ft 269 kts 268°
2026-05-04 03:05 62.40461 15.15231 23653 ft 275 kts 268°
2026-05-04 03:05 62.40547 15.11112 23646 ft 280 kts 267°
2026-05-04 03:06 62.40634 15.06892 23646 ft 283 kts 268°
2026-05-04 03:06 62.40722 15.02599 23644 ft 286 kts 268°
2026-05-04 03:06 62.40809 14.98311 23629 ft 289 kts 268°
2026-05-04 03:06 62.40894 14.94007 23623 ft 291 kts 268°
2026-05-04 03:07 62.40980 14.89657 23632 ft 291 kts 268°
2026-05-04 03:07 62.41064 14.85300 23617 ft 293 kts 268°
2026-05-04 03:07 62.41147 14.80893 23623 ft 293 kts 268°
2026-05-04 03:07 62.41227 14.76552 23629 ft 294 kts 268°
2026-05-04 03:08 62.41309 14.72112 23614 ft 295 kts 268°
2026-05-04 03:08 62.41387 14.67757 23614 ft 295 kts 267°
2026-05-04 03:08 62.41465 14.63300 23619 ft 295 kts 268°
2026-05-04 03:08 62.41540 14.58950 23617 ft 295 kts 268°
2026-05-04 03:09 62.41615 14.54536 23621 ft 295 kts 268°
2026-05-04 03:09 62.41689 14.50074 23631 ft 295 kts 268°
2026-05-04 03:09 62.41760 14.45652 23620 ft 295 kts 268°
2026-05-04 03:09 62.41830 14.41228 23625 ft 295 kts 268°
2026-05-04 03:10 62.41899 14.36848 23618 ft 295 kts 268°
2026-05-04 03:10 62.41967 14.32411 23618 ft 295 kts 267°
2026-05-04 03:10 62.42033 14.27999 23624 ft 295 kts 267°
2026-05-04 03:10 62.42097 14.23574 23603 ft 296 kts 267°
2026-05-04 03:11 62.42161 14.19120 23608 ft 296 kts 267°
2026-05-04 03:11 62.42223 14.14720 23603 ft 296 kts 267°
2026-05-04 03:11 62.42284 14.10262 23597 ft 296 kts 267°
2026-05-04 03:11 62.42343 14.05806 23586 ft 296 kts 266°
2026-05-04 03:12 62.42401 14.01371 23590 ft 296 kts 266°
2026-05-04 03:12 62.42457 13.96951 23590 ft 297 kts 267°
2026-05-04 03:12 62.42512 13.92538 23597 ft 297 kts 266°
2026-05-04 03:12 62.42566 13.88066 23581 ft 297 kts 266°
2026-05-04 03:13 62.42618 13.83669 23597 ft 297 kts 267°
2026-05-04 03:13 62.42669 13.79171 23601 ft 297 kts 266°
2026-05-04 03:13 62.42719 13.74723 23585 ft 297 kts 266°
2026-05-04 03:13 62.42766 13.70304 23600 ft 297 kts 266°
2026-05-04 03:14 62.42813 13.65857 23601 ft 297 kts 266°
2026-05-04 03:14 62.42858 13.61409 23596 ft 297 kts 267°
2026-05-04 03:14 62.42902 13.56942 23601 ft 297 kts 266°
2026-05-04 03:14 62.42944 13.52550 23603 ft 297 kts 266°
2026-05-04 03:15 62.42985 13.48085 23599 ft 297 kts 267°
2026-05-04 03:15 62.43025 13.43645 23600 ft 297 kts 267°
2026-05-04 03:15 62.43063 13.39185 23602 ft 297 kts 266°
2026-05-04 03:15 62.43100 13.34728 23599 ft 297 kts 266°
2026-05-04 03:16 62.43136 13.30273 23591 ft 297 kts 266°
2026-05-04 03:16 62.43169 13.25829 23601 ft 297 kts 266°
2026-05-04 03:16 62.43202 13.21393 23590 ft 296 kts 266°
2026-05-04 03:16 62.43234 13.16974 23599 ft 296 kts 266°
2026-05-04 03:17 62.43265 13.12525 23590 ft 296 kts 265°
2026-05-04 03:17 62.43291 13.08163 23578 ft 295 kts 266°
2026-05-04 03:17 62.43317 13.03742 23588 ft 295 kts 266°
2026-05-04 03:17 62.43342 12.99332 23604 ft 294 kts 266°
2026-05-04 03:18 62.43366 12.94932 23599 ft 294 kts 265°
2026-05-04 03:18 62.43388 12.90500 23602 ft 295 kts 266°
2026-05-04 03:18 62.43409 12.86117 23595 ft 295 kts 266°
2026-05-04 03:18 62.43428 12.81695 23603 ft 295 kts 266°
2026-05-04 03:19 62.43446 12.77260 23608 ft 296 kts 266°
2026-05-04 03:19 62.43463 12.72821 23605 ft 296 kts 266°
2026-05-04 03:19 62.43478 12.68416 23597 ft 296 kts 266°
2026-05-04 03:19 62.43492 12.63963 23591 ft 296 kts 266°
2026-05-04 03:20 62.43505 12.59559 23597 ft 296 kts 266°
2026-05-04 03:20 62.43516 12.55125 23594 ft 297 kts 266°
2026-05-04 03:20 62.43527 12.50674 23595 ft 297 kts 266°
2026-05-04 03:20 62.43535 12.46242 23598 ft 297 kts 266°
2026-05-04 03:21 62.43543 12.41794 23612 ft 297 kts 266°
2026-05-04 03:21 62.43548 12.37372 23604 ft 297 kts 266°
2026-05-04 03:21 62.43553 12.32893 23615 ft 296 kts 265°
2026-05-04 03:21 62.43556 12.28375 23625 ft 296 kts 265°
2026-05-04 03:22 62.43557 12.23917 23631 ft 296 kts 265°
2026-05-04 03:22 62.43702 12.19486 23597 ft 304 kts 276°
2026-05-04 03:22 62.44762 12.15352 23536 ft 328 kts 301°
2026-05-04 03:22 62.46334 12.11806 23557 ft 331 kts 305°
2026-05-04 03:23 62.47966 12.08252 23564 ft 332 kts 305°
2026-05-04 03:23 62.49591 12.04711 23576 ft 331 kts 305°
2026-05-04 03:23 62.51207 12.01170 23588 ft 331 kts 304°
2026-05-04 03:23 62.52816 11.97627 23604 ft 330 kts 304°
2026-05-04 03:24 62.54406 11.94107 23610 ft 330 kts 304°
2026-05-04 03:24 62.56003 11.90561 23627 ft 330 kts 304°
2026-05-04 03:24 62.57601 11.86999 23632 ft 330 kts 304°
2026-05-04 03:24 62.59205 11.83417 23644 ft 330 kts 304°
2026-05-04 03:25 62.60794 11.79859 23655 ft 330 kts 304°
2026-05-04 03:25 62.62365 11.76331 23672 ft 330 kts 304°
2026-05-04 03:25 62.63961 11.72742 23689 ft 330 kts 304°
2026-05-04 03:25 62.65543 11.69176 23703 ft 329 kts 304°
2026-05-04 03:26 62.67125 11.65604 23721 ft 329 kts 304°
2026-05-04 03:26 62.68716 11.62005 23721 ft 329 kts 304°
2026-05-04 03:26 62.70301 11.58415 23722 ft 329 kts 304°
2026-05-04 03:26 62.71878 11.54834 23730 ft 329 kts 304°
2026-05-04 03:27 62.73456 11.51246 23734 ft 326 kts 304°
2026-05-04 03:27 62.74997 11.47747 23697 ft 319 kts 303°
2026-05-04 03:27 62.76523 11.44269 23607 ft 312 kts 303°
2026-05-04 03:27 62.78011 11.40860 23281 ft 315 kts 303°
2026-05-04 03:28 62.79514 11.37404 22800 ft 318 kts 304°
2026-05-04 03:28 62.81049 11.33870 22271 ft 316 kts 303°
2026-05-04 03:28 62.82670 11.30564 21611 ft 327 kts 315°
2026-05-04 03:28 62.84845 11.28899 21216 ft 347 kts 342°
2026-05-04 03:29 62.87250 11.28586 20775 ft 350 kts 349°
2026-05-04 03:29 62.89700 11.28433 20344 ft 349 kts 349°
2026-05-04 03:29 62.92095 11.28291 19915 ft 348 kts 349°
2026-05-04 03:29 62.94511 11.28141 19476 ft 348 kts 349°
2026-05-04 03:30 62.96920 11.27982 19049 ft 347 kts 350°
2026-05-04 03:30 62.99311 11.27830 18626 ft 348 kts 351°
2026-05-04 03:30 63.01758 11.28319 18187 ft 358 kts
2026-05-04 03:30 63.04172 11.29398 17757 ft 360 kts
2026-05-04 03:31 63.06623 11.30529 17313 ft 360 kts
2026-05-04 03:31 63.09066 11.31656 16867 ft 360 kts
2026-05-04 03:31 63.11507 11.32776 16408 ft 359 kts
2026-05-04 03:31 63.13926 11.33882 15974 ft 357 kts
2026-05-04 03:32 63.16305 11.35364 15527 ft 358 kts 15°
2026-05-04 03:32 63.18576 11.37346 14986 ft 346 kts 19°
2026-05-04 03:32 63.20529 11.40429 14090 ft 351 kts 48°
2026-05-04 03:32 63.21528 11.45170 13797 ft 330 kts 79°
2026-05-04 03:33 63.21575 11.50022 13464 ft 311 kts 96°
2026-05-04 03:33 63.21420 11.54740 13078 ft 298 kts 94°
2026-05-04 03:33 63.21723 11.59158 12749 ft 286 kts 73°
2026-05-04 03:33 63.22307 11.63214 12409 ft 275 kts 72°
2026-05-04 03:34 63.22887 11.67252 12074 ft 275 kts 73°
2026-05-04 03:34 63.23488 11.71250 11732 ft 277 kts 66°
2026-05-04 03:34 63.24569 11.74758 11425 ft 276 kts 47°
2026-05-04 03:34 63.25845 11.77946 11077 ft 278 kts 46°
2026-05-04 03:35 63.27124 11.81130 10728 ft 274 kts 46°
2026-05-04 03:35 63.28438 11.84066 10372 ft 268 kts 33°
2026-05-04 03:35 63.30035 11.85924 10128 ft 258 kts 20°
2026-05-04 03:35 63.31699 11.87457 9651 ft 258 kts 14°
2026-05-04 03:36 63.33405 11.87510 9025 ft 245 kts 339°
2026-05-04 03:36 63.34665 11.85391 8869 ft 214 kts 300°
2026-05-04 03:36 63.35229 11.82546 8720 ft 195 kts 287°
2026-05-04 03:36 63.35656 11.79679 8536 ft 199 kts 286°
2026-05-04 03:37 63.36060 11.76655 8313 ft 205 kts 284°
2026-05-04 03:37 63.36418 11.73643 8073 ft 200 kts 283°
2026-05-04 03:37 63.36755 11.70643 7824 ft 205 kts 282°
2026-05-04 03:37 63.37087 11.67518 7572 ft 206 kts 282°
2026-05-04 03:38 63.37399 11.64452 7321 ft 206 kts 281°
2026-05-04 03:38 63.37710 11.61308 7051 ft 206 kts 282°
2026-05-04 03:38 63.38006 11.58215 6802 ft 204 kts 281°
2026-05-04 03:38 63.38430 11.55215 6464 ft 204 kts 300°
2026-05-04 03:39 63.39563 11.53330 6245 ft 210 kts 334°
2026-05-04 03:39 63.40940 11.52231 5990 ft 214 kts 338°
2026-05-04 03:39 63.42364 11.51156 5724 ft 216 kts 338°
2026-05-04 03:39 63.43769 11.50090 5444 ft 211 kts 339°
2026-05-04 03:40 63.45003 11.48551 5084 ft 203 kts 311°
2026-05-04 03:40 63.45551 11.45847 4915 ft 190 kts 279°
2026-05-04 03:40 63.45622 11.42888 4810 ft 190 kts 274°
2026-05-04 03:40 63.45908 11.40025 4709 ft 187 kts 285°
2026-05-04 03:41 63.45889 11.37169 4451 ft 186 kts 261°
2026-05-04 03:41 63.45703 11.34300 4182 ft 186 kts 269°
2026-05-04 03:41 63.45690 11.31462 3874 ft 183 kts 271°
2026-05-04 03:41 63.45681 11.28674 3555 ft 177 kts 271°
2026-05-04 03:42 63.45679 11.25940 3277 ft 173 kts 272°
2026-05-04 03:42 63.45692 11.23283 3072 ft 169 kts 273°
2026-05-04 03:42 63.45703 11.20690 2797 ft 165 kts 273°
2026-05-04 03:42 63.45711 11.18162 2525 ft 167 kts 274°
2026-05-04 03:43 63.45725 11.15551 2271 ft 162 kts 273°
2026-05-04 03:43 63.45724 11.13150 2031 ft 151 kts 273°
2026-05-04 03:43 63.45727 11.10869 1750 ft 141 kts 273°
2026-05-04 03:43 63.45734 11.08730 1515 ft 134 kts 273°
2026-05-04 03:44 63.45741 11.06712 1309 ft 129 kts 272°
2026-05-04 03:44 63.45744 11.04731 1102 ft 129 kts 271°
2026-05-04 03:44 63.45729 11.02734 941 ft 128 kts 270°
2026-05-04 03:44 63.45737 11.00721 787 ft 131 kts 272°
2026-05-04 03:45 63.45746 10.98669 580 ft 132 kts 270°
2026-05-04 03:45 63.45755 10.96636 349 ft 132 kts 271°
2026-05-04 03:45 63.45755 10.94575 118 ft 132 kts 270°
2026-05-04 03:45 63.45760 10.92594 10 ft 118 kts 269°
2026-05-04 03:46 63.45763 10.91286 -1 ft 58 kts 271°
2026-05-04 03:46 63.45756 10.90681 -4 ft 26 kts 257°
2026-05-04 03:46 63.45701 10.90420 -4 ft 10 kts 222°
2026-05-04 03:46 63.45630 10.90379 -4 ft 10 kts 163°
2026-05-04 03:47 63.45599 10.90483 -4 ft 7 kts 91°
2026-05-04 03:47 63.45599 10.90610 -4 ft 9 kts 91°
2026-05-04 03:47 63.45598 10.90784 -4 ft 13 kts 91°
2026-05-04 03:47 63.45598 10.90995 -1 ft 11 kts 91°
2026-05-04 03:48 63.45592 10.91119 -1 ft 6 kts 121°
2026-05-04 03:48 63.45554 10.91143 -1 ft 6 kts 178°
2026-05-04 03:48 63.45506 10.91143 -1 ft 5 kts 180°
2026-05-04 03:48 63.45467 10.91143 -1 ft 5 kts 180°
2026-05-04 03:49 63.45424 10.91151 -1 ft 5 kts 144°
2026-05-04 03:49 63.45418 10.91226 -1 ft 3 kts 89°
2026-05-04 03:49 63.45418 10.91268 -1 ft 1 kts 90°
2026-05-04 03:49 63.45418 10.91269 -1 ft 0 kts 90°